Simultaneous Nadir Overpasses (SNOs) Predictions

Prediction of SNOs between GOES-15 and TERRA Satellite Orbit:

Table of predicted SNOs for the next 14.0 days since TLE Epoch: 6/25/2016
Index Date Time (GOES-15) GOES-15 Lat,Lon TERRA Lat,Lon Distance(km) Time Diff (sec)
1 06/26/2016 19:19:53 -0.09,-135.51 -0.66,-132.78 310.62 80
2 06/27/2016 07:43:57 0.06,-135.52 -0.47,-137.96 278.65 80
3 06/29/2016 07:29:06 0.07,-135.52 0.17,-135.01 57.93 80
4 07/01/2016 07:16:55 0.07,-135.52 0.81,-132.06 393.85 80
5 07/01/2016 19:40:50 -0.05,-135.51 0.32,-137.21 192.60 80
6 07/03/2016 19:25:59 -0.06,-135.51 -0.32,-134.25 142.52 80
7 07/04/2016 07:50:03 0.04,-135.51 -0.79,-139.44 446.91 80
8 07/05/2016 19:13:48 -0.07,-135.50 -0.97,-131.30 477.25 80
9 07/06/2016 07:37:52
